[[{"header":{"parameterUnit":"m.s-1","parameterCategory":1,"la1":30.2991,"la2":30.254,"lo1":-89.0895,"lo2":-89.0444,"dy":0.0017,"dx":0.0017,"nx":28,"ny":28,"refTime":"2025-11-07T03:00:00:Z","depth":0,"parameterNumber":2,"parameterNumberName":"U-component_of_WINDS"},"data":[0,0,0,0,0,0,0,0,0,0,0,0,0,0,0,0,0,0,0,0,0,0,0,0,0,0,0,0,0,0,0,0,0,0,0,0,0,0,0,0,0,0,0,0,0,0,0,0,0,0,0,0,0,0,0,0,0,0,0.1538,0.154,0,0.1732,0.1735,0.1737,0.1784,0.1783,0.1782,0.1781,0.1984,0.199,0.1997,0,0,0,0,0,0,0,0,0,0,0,0,0,0.1213,0.1218,0.1538,0.1541,0.1543,0.1732,0.1735,0.1737,0.1785,0.1783,0.1782,0.178,0.1982,0.199,0.1998,0,0,0,0,0,0,0,0,0,0,0,0,0,0.1375,0.122,0.1538,0.1589,0.1596,0.1732,0.1735,0.1738,0.1785,0.1783,0.1781,0.1779,0.1979,0.1989,0.1999,0.2098,0,0,0.2029,0.2033,0,0,0,0,0,0,0,0,0.1366,0.1387,0.1579,0.1586,0.1593,0.1732,0.1695,0.1859,0.1786,0.1713,0.1781,0.1778,0.1902,0.1918,0.1959,0.2108,0.2117,0.203,0.2036,0.204,0.2043,0,0,0,0,0,0,0,0.1355,0.1379,0.1615,0.1582,0.1591,0.1604,0.1625,0.1726,0.1816,0.1719,0.1723,0.1745,0.1906,0.1949,0.1964,0.212,0.203,0.2038,0.2044,0.2048,0.2362,0.2364,0,0,0,0,0,0,0.1334,0.1369,0.1609,0.1621,0.1472,0.1612,0.1635,0.169,0.1815,0.1832,0.1747,0.1747,0.1933,0.1953,0.1971,0.2098,0.204,0.2049,0.2055,0.236,0.2363,0.2365,0,0,0,0,0,0,0.1327,0.1355,0.1601,0.1496,0.1529,0.1619,0.168,0.1695,0.1738,0.1836,0.1853,0.1775,0.1933,0.1958,0.2067,0.2106,0.2054,0.2063,0.2357,0.2361,0.2364,0.2351,0,0,0,0,0,0,0.1317,0.1352,0.139,0.1497,0.1534,0.1692,0.1683,0.17,0.1755,0.1757,0.1867,0.1883,0.1933,0.2052,0.2076,0.2119,0.2071,0.2354,0.2359,0.2363,0.2349,0.2354,0.2359,0,0,0,0,0,0.1305,0.1379,0.1391,0.142,0.1583,0.1694,0.1715,0.177,0.1758,0.1797,0.186,0.1879,0.2097,0.2062,0.2091,0.2137,0.2352,0.2357,0.2362,0.2347,0.2353,0.2359,0,0,0,0,0,0,0.1276,0.1394,0.1409,0.1519,0.1596,0.1701,0.1753,0.1775,0.1858,0.1857,0.1923,0.1947,0.2052,0.2105,0.2064,0.2241,0.2224,0.2236,0.2203,0.221,0.2214,0.2201,0.2079,0,0,0,0,0,0.1281,0.136,0.146,0.1547,0.1585,0.1662,0.1713,0.1748,0.1831,0.1864,0.1935,0.2016,0.2103,0.2159,0.2244,0.2356,0.2382,0.2401,0.2406,0.241,0.242,0.2485,0.2496,0.2383,0.2383,0.2383,0,0,0.1295,0.137,0.1416,0.1543,0.1607,0.1689,0.1689,0.1776,0.1838,0.1878,0.1985,0.204,0.2135,0.2246,0.2299,0.2293,0.2456,0.2417,0.2419,0.2427,0.2492,0.2502,0.2512,0.2386,0.2386,0.2385,0,0,0.1363,0.1426,0.1507,0.157,0.1666,0.1717,0.1736,0.1839,0.1876,0.1985,0.2017,0.2092,0.2239,0.2306,0.2359,0.2452,0.2474,0.2477,0.2505,0.2567,0.2576,0.2584,0.262,0.2631,0.2486,0.2486,0.2486,0,0.1368,0.1491,0.1546,0.1631,0.1687,0.1725,0.1809,0.1868,0.1987,0.2026,0.2018,0.2204,0.2271,0.2399,0.2421,0.2462,0.2488,0.2467,0.257,0.2579,0.2588,0.2622,0.2635,0.2486,0.2486,0.2486,0.2486,0,0.1495,0.158,0.1634,0.1747,0.1809,0.1892,0.1961,0.2018,0.2047,0.2099,0.221,0.2291,0.2394,0.2426,0.2457,0.256,0.2554,0.2557,0.2542,0.2597,0.2631,0.2645,0.2486,0.2486,0.2486,0.2486,0,0,0.1551,0.1692,0.1711,0.1764,0.1872,0.194,0.2026,0.2125,0.2173,0.2254,0.2329,0.2453,0.2457,0.2517,0.2555,0.2609,0.268,0.2607,0.261,0.262,0.2802,0.28,0.2815,0.2694,0.2697,0.2699,0.2794,0,0.1634,0.1787,0.1839,0.1967,0.2048,0.2085,0.216,0.2235,0.2286,0.2363,0.242,0.2507,0.2504,0.2541,0.2596,0.266,0.2718,0.2653,0.2768,0.2771,0.2745,0.2832,0.2831,0.2917,0.2808,0.281,0.2812,0,0.1751,0.1833,0.1969,0.2068,0.2104,0.217,0.2266,0.2338,0.2425,0.2458,0.2525,0.2559,0.2652,0.263,0.276,0.2715,0.2765,0.2803,0.2807,0.2822,0.2796,0.2852,0.2946,0.296,0.2832,0.2831,0.2829,0,0.1781,0.1925,0.2026,0.2069,0.2186,0.2233,0.2284,0.2369,0.2426,0.2509,0.2547,0.2641,0.2693,0.2765,0.2824,0.2802,0.2951,0.2933,0.2983,0.2982,0.3015,0.3013,0.3121,0.3042,0.3042,0.3041,0.3041,0,0.187,0.1953,0.2041,0.2103,0.2197,0.2255,0.2347,0.2401,0.2476,0.2551,0.2588,0.2657,0.273,0.2809,0.2856,0.2958,0.2981,0.3012,0.3024,0.301,0.3007,0.3046,0.3042,0.3045,0.3044,0.3043,0.3043,0,0.1921,0.1983,0.2095,0.2197,0.2224,0.229,0.2378,0.244,0.2492,0.2586,0.2611,0.2693,0.2789,0.2854,0.2976,0.3007,0.3119,0.3129,0.309,0.3096,0.3144,0.3139,0.3283,0.3306,0.3209,0.321,0.321,0,0.1975,0.2039,0.2147,0.2199,0.225,0.2333,0.2391,0.2451,0.251,0.2614,0.2665,0.2762,0.2844,0.2995,0.3066,0.316,0.3174,0.3218,0.3189,0.3174,0.3179,0.3175,0.3183,0.3224,0.3224,0.3225,0.3226,0,0.2065,0.2092,0.2173,0.2266,0.2333,0.2409,0.2485,0.2526,0.26,0.2664,0.2761,0.2824,0.2949,0.3047,0.3147,0.3202,0.3228,0.3234,0.3251,0.3239,0.3215,0.3231,0.3105,0.3231,0.323,0.323,0.323,0.3229,0.2121,0.218,0.2266,0.2355,0.2419,0.2489,0.2553,0.2613,0.2694,0.28,0.283,0.2932,0.3019,0.3156,0.3213,0.3294,0.3291,0.3315,0.3322,0.3328,0.3329,0.3199,0.3313,0.3313,0.3313,0.3313,0.3312,0,0.2215,0.2271,0.2353,0.2458,0.2529,0.2544,0.2629,0.2688,0.2777,0.2854,0.2933,0.3046,0.3141,0.3219,0.3317,0.3368,0.3382,0.3392,0.339,0.3403,0.3325,0.3302,0.3379,0.3379,0.3379,0.3379,0.3379,0.3379,0.2272,0.2374,0.2412,0.2546,0.2603,0.2702,0.275,0.2816,0.2878,0.3002,0.308,0.313,0.3209,0.3313,0.3401,0.3421,0.3457,0.3465,0.3489,0.3415,0.3408,0.3401,0.3379,0.3471,0.3471,0.356,0.3561,0.3561]},{"header":{"parameterUnit":"m.s-1","parameterCategory":1,"la1":30.2991,"la2":30.254,"lo1":-89.0895,"lo2":-89.0444,"dy":0.0017,"dx":0.0017,"nx":28,"ny":28,"refTime":"2025-11-07T03:00:00:Z","depth":0,"parameterNumber":3,"parameterNumberName":"V-component_of_WINDS"},"data":[0,0,0,0,0,0,0,0,0,0,0,0,0,0,0,0,0,0,0,0,0,0,0,0,0,0,0,0,0,0,0,0,0,0,0,0,0,0,0,0,0,0,0,0,0,0,0,0,0,0,0,0,0,0,0,0,0,0,4.7636,4.7637,0,4.7717,4.7718,4.7719,4.7633,4.763,4.7627,4.7624,4.7697,4.7702,4.7707,0,0,0,0,0,0,0,0,0,0,0,0,0,4.74,4.7404,4.7636,4.7637,4.7638,4.7717,4.7718,4.7719,4.7634,4.763,4.7626,4.7622,4.7695,4.7701,4.7707,0,0,0,0,0,0,0,0,0,0,0,0,0,4.7493,4.7406,4.7636,4.7606,4.7604,4.7717,4.7718,4.7719,4.7635,4.763,4.7625,4.762,4.7694,4.7701,4.7708,4.7853,0,0,4.7731,4.7734,0,0,0,0,0,0,0,0,4.7488,4.7502,4.7609,4.7608,4.7606,4.766,4.7661,4.7764,4.7636,4.7623,4.7624,4.7618,4.7688,4.7696,4.7721,4.7856,4.7859,4.7732,4.7736,4.774,4.7742,0,0,0,0,0,0,0,4.7482,4.7498,4.7668,4.7611,4.7609,4.7585,4.7593,4.768,4.7682,4.7623,4.7617,4.7629,4.7686,4.7714,4.7723,4.786,4.7732,4.7738,4.7743,4.7746,4.812,4.8125,0,0,0,0,0,0,4.748,4.7493,4.7665,4.767,4.7534,4.7593,4.7602,4.7648,4.768,4.7681,4.7633,4.7624,4.7704,4.7714,4.7725,4.7899,4.774,4.7747,4.7751,4.8115,4.8121,4.8127,0,0,0,0,0,0,4.7475,4.7496,4.7662,4.758,4.76,4.7603,4.7654,4.7652,4.768,4.7688,4.7686,4.7662,4.7701,4.7714,4.7823,4.79,4.775,4.7757,4.8108,4.8117,4.8124,4.8247,0,0,0,0,0,0,4.7469,4.7495,4.7552,4.7583,4.7605,4.7762,4.7659,4.7657,4.7694,4.7684,4.7715,4.7715,4.7698,4.7812,4.783,4.7908,4.7763,4.8101,4.8112,4.8121,4.8236,4.8258,4.8277,0,0,0,0,0,4.7461,4.7581,4.7555,4.7577,4.7676,4.7766,4.7779,4.7759,4.7701,4.7757,4.7762,4.7714,4.7888,4.7824,4.7844,4.7925,4.8096,4.8109,4.8121,4.8227,4.8254,4.8277,0,0,0,0,0,0,4.7555,4.7584,4.7556,4.769,4.7727,4.7752,4.7822,4.7788,4.7839,4.7827,4.7797,4.7805,4.7921,4.7933,4.7861,4.8067,4.7982,4.7999,4.8056,4.8082,4.8102,4.8098,4.7769,0,0,0,0,0,4.7592,4.7666,4.7686,4.7802,4.7822,4.782,4.7858,4.784,4.7875,4.7889,4.7902,4.7936,4.7999,4.804,4.8098,4.8236,4.8242,4.8301,4.8322,4.8339,4.8355,4.8431,4.8458,4.8167,4.8167,4.8167,0,0,4.7668,4.7693,4.7741,4.7822,4.7848,4.7924,4.7833,4.7915,4.7971,4.7901,4.8006,4.8017,4.8052,4.8178,4.8233,4.8191,4.8436,4.8355,4.8368,4.8375,4.8446,4.8474,4.8499,4.8175,4.8174,4.8173,0,0,4.7846,4.7872,4.7974,4.8003,4.8046,4.8043,4.8068,4.8099,4.8104,4.821,4.816,4.8223,4.8331,4.836,4.8388,4.8579,4.8537,4.8598,4.8707,4.8782,4.8805,4.8825,4.8896,4.8921,4.8613,4.8613,4.8613,0,4.7935,4.805,4.8029,4.8118,4.8155,4.8098,4.82,4.8228,4.8286,4.8312,4.8264,4.84,4.8419,4.8552,4.86,4.8623,4.865,4.8596,4.8803,4.8823,4.8842,4.8909,4.8936,4.862,4.862,4.8619,4.8618,0,4.8158,4.8238,4.8314,4.8378,4.8422,4.8516,4.8508,4.8555,4.8533,4.8536,4.8644,4.8666,4.8729,4.8757,4.8735,4.8887,4.886,4.8808,4.8723,4.8878,4.894,4.8966,4.8631,4.8628,4.8626,4.8624,0,0,4.8399,4.8451,4.848,4.8509,4.8552,4.8612,4.8703,4.8768,4.8811,4.8851,4.8928,4.9021,4.8974,4.9007,4.8986,4.9052,4.9205,4.8992,4.8992,4.9033,4.9377,4.9419,4.9449,4.9176,4.9181,4.9185,4.9375,0,4.8581,4.8745,4.8729,4.8883,4.8958,4.8905,4.8984,4.9019,4.9023,4.9084,4.9086,4.9155,4.9086,4.9106,4.9168,4.9174,4.9274,4.9159,4.9247,4.925,4.9243,4.9481,4.9525,4.9703,4.9399,4.9403,4.9406,0,4.8816,4.8872,4.9035,4.907,4.91,4.9173,4.9232,4.9291,4.9328,4.9326,4.9365,4.9333,4.9423,4.9334,4.9458,4.938,4.9414,4.9422,4.9428,4.9438,4.934,4.95,4.9759,4.9788,4.9444,4.9441,4.9438,0,4.898,4.9094,4.9208,4.9233,4.9276,4.9329,4.9348,4.938,4.9421,4.9471,4.9497,4.9555,4.9588,4.9633,4.9618,4.9554,4.9745,4.9654,4.9746,4.9747,4.9791,4.9789,5.0063,4.9808,4.9808,4.9807,4.9807,0,4.9188,4.929,4.9283,4.9353,4.9466,4.9445,4.9557,4.9568,4.9598,4.9668,4.9623,4.9689,4.9663,4.9727,4.9715,4.982,4.9834,4.9835,4.9831,4.9841,4.9842,4.9865,4.9854,4.9814,4.9813,4.9811,4.981,0,4.9391,4.939,4.9511,4.9543,4.9553,4.9635,4.9661,4.9726,4.9726,4.9815,4.9835,4.9835,4.9908,4.9897,4.9976,4.9967,5.01,5.0079,5.009,5.0086,5.018,5.0173,5.0481,5.0522,5.0238,5.0241,5.0243,0,4.9526,4.9604,4.9646,4.9692,4.9717,4.979,4.9833,4.9814,4.986,4.9909,4.9968,5.0037,5.0092,5.021,5.0216,5.0277,5.0259,5.0363,5.0267,5.0276,5.0264,5.0261,5.027,5.0382,5.0386,5.0388,5.039,0,4.9765,4.9762,4.9827,4.9894,4.9947,4.9997,5.0042,5.008,5.0066,5.0119,5.0196,5.0239,5.0322,5.0391,5.0449,5.0465,5.0426,5.042,5.0445,5.0458,5.0462,5.0465,5.0145,5.0414,5.0411,5.041,5.0408,5.0407,4.994,5.0009,5.0051,5.0126,5.0158,5.0202,5.0266,5.0276,5.0341,5.0411,5.0394,5.048,5.0515,5.0588,5.0611,5.0677,5.0638,5.0674,5.0683,5.0693,5.0707,5.045,5.0686,5.0686,5.0685,5.0684,5.0684,0,5.0181,5.0206,5.0275,5.0342,5.0401,5.0361,5.0409,5.046,5.0539,5.0576,5.0632,5.072,5.0788,5.0799,5.0863,5.0914,5.0897,5.0931,5.0929,5.0934,5.0736,5.0709,5.0944,5.0944,5.0943,5.0943,5.0943,5.0943,5.0313,5.0429,5.0431,5.0561,5.0583,5.0672,5.0703,5.0743,5.0773,5.0875,5.0933,5.0941,5.0967,5.1033,5.1093,5.1094,5.1121,5.1163,5.1158,5.0973,5.0947,5.0923,5.0898,5.1168,5.1168,5.135,5.1352,5.1353]}]]